SCP
0 0 -0 0 0 0 0 0 0 0 0 0 0 0 0 0 0 0 0 0 0 0
-0 -0 0 0 0 0 0 0 0 0 0 0 0 0 0 0 0 0 0 0 0 0
-0 -0 -0 -0 0 0 0 0 0 0 0 0 0 0 0 0 0 0 0 0 0 0
-0 0 0 -0 0 0 0 0 0 0 0 0 0 0 0 0 0 0 0 0 0 0
-0 -0 -0 -0 -0 0 0 0 0 0 0 0 0 0 0 0 0 0 0 0 0 0
-0 -0 -0 -0 -0 -0 -0 0 0 0 0 0 0 0 0 0 0 0 0 0 0 0
0 -0 -0 -0 -0 -0 -0 -0 0 0 0 0 0 0 0 0 0 0 0 0 0 0
-0 0 0 -0 -0 -0 -0 -0 -0 0 0 0 0 0 0 0 0 0 0 0 0 0
-0 -0 0 0 0 -0 -0 -0 -0 0 0 0 0 0 0 0 0 0 0 0 0 0
-0 -0 0 0 0 0 0 -0 -0 0 0 0 0 0 0 0 0 0 0 0 0 0
0 0 0 0 0 0 0 0 0 0 0 0 0 0 0 0 0 0 0 0 0 0
0 0 0 0 0 0 0 0 0 0 0 0 0 0 0 0 0 0 0 0 0 0
0 0 0 0 0 0 -0 0 0 0 0 0 0 0 0 0 0 0 0 0 0 0
0 0 0 0 0 -0 -0 -0 -0 0 0 0 0 0 -0 -0 0 0 0 0 0 0
Wind_Speed_500mb
41 38 38 44 50 59 69 75 76 83 90 111 130 128 124 120 116 111 109 107 102 96
51 45 45 43 44 49 63 70 70 76 82 90 108 130 130 128 123 120 117 115 109 103
55 55 52 50 51 53 52 59 68 71 75 82 91 108 130 131 129 125 124 119 113 108
61 56 54 54 53 55 56 60 60 62 71 77 86 98 111 127 132 130 127 124 120 116
69 68 64 61 59 56 56 59 62 61 64 71 83 92 104 113 131 131 130 130 125 121
67 67 68 67 68 64 62 56 59 62 66 66 78 89 97 105 113 126 129 131 129 124
67 69 72 69 65 70 69 64 59 63 66 66 71 83 97 101 104 117 122 129 132 129
71 73 74 74 74 65 66 72 68 62 65 69 70 79 90 101 102 110 115 121 133 133
73 74 77 80 77 78 73 65 71 71 64 70 73 76 80 92 99 103 115 115 125 129
80 83 82 83 84 80 82 81 73 72 72 68 72 69 75 83 92 93 111 116 121 124
73 79 86 90 92 92 90 86 84 79 72 74 68 66 68 74 84 90 99 113 118 122
81 83 86 90 96 99 100 99 94 88 86 77 77 64 61 63 75 90 97 103 112 120
90 92 96 98 100 102 106 107 103 98 91 87 80 70 62 58 71 91 96 97 106 115
106 109 108 107 107 111 111 114 112 106 97 91 84 77 68 62 71 88 91 100 104 109
Wind_Direction_500mb
343 332 319 307 294 285 280 280 277 269 262 250 242 240 239 236 234 233 231 231 231 232
348 336 319 306 298 295 289 285 281 275 269 262 253 243 240 238 235 233 232 231 231 232
345 342 333 317 304 298 293 288 285 280 274 267 260 251 242 239 238 235 234 232 232 231
344 341 343 339 323 307 296 289 282 279 276 270 263 257 249 242 240 238 237 235 233 233
337 339 338 338 338 325 307 295 287 281 273 269 265 261 254 246 240 239 238 238 235 234
340 337 335 336 337 335 328 311 294 285 278 271 265 262 259 255 248 243 240 239 240 238
334 336 336 332 330 333 331 329 311 294 285 277 270 266 261 256 254 249 243 241 241 238
331 329 328 329 329 325 326 325 327 307 286 277 268 267 263 260 254 253 249 244 243 241
327 329 329 327 326 326 323 321 319 322 307 283 274 270 268 264 258 254 252 250 247 244
320 321 324 327 327 326 323 320 318 311 315 303 285 277 275 271 265 258 255 251 248 245
306 310 314 319 322 323 323 321 316 311 306 308 301 281 273 272 271 263 257 253 250 247
305 306 307 309 312 314 316 315 316 312 307 301 302 295 274 270 265 262 258 255 251 248
300 300 301 302 303 305 307 308 308 308 304 300 292 297 285 262 257 250 254 251 249 245
297 298 298 297 296 298 299 300 301 300 301 297 292 288 292 274 248 244 243 246 250 248
Wind_Speed_850mb
41 38 38 44 50 59 69 75 76 83 90 111 130 128 124 120 116 111 109 107 102 96
51 45 45 43 44 49 63 70 70 76 82 90 108 130 130 128 123 120 117 115 109 103
55 55 52 50 51 53 52 59 68 71 75 82 91 108 130 131 129 125 124 119 113 108
61 56 54 54 53 55 56 60 60 62 71 77 86 98 111 127 132 130 127 124 120 116
69 68 64 61 59 56 56 59 62 61 64 71 83 92 104 113 131 131 130 130 125 121
67 67 68 67 68 64 62 56 59 62 66 66 78 89 97 105 113 126 129 131 129 124
67 69 72 69 65 70 69 64 59 63 66 66 71 83 97 101 104 117 122 129 132 129
71 73 74 74 74 65 66 72 68 62 65 69 70 79 90 101 102 110 115 121 133 133
73 74 77 80 77 78 73 65 71 71 64 70 73 76 80 92 99 103 115 115 125 129
80 83 82 83 84 80 82 81 73 72 72 68 72 69 75 83 92 93 111 116 121 124
73 79 86 90 92 92 90 86 84 79 72 74 68 66 68 74 84 90 99 113 118 122
81 83 86 90 96 99 100 99 94 88 86 77 77 64 61 63 75 90 97 103 112 120
90 92 96 98 100 102 106 107 103 98 91 87 80 70 62 58 71 91 96 97 106 115
106 109 108 107 107 111 111 114 112 106 97 91 84 77 68 62 71 88 91 100 104 109
Wind_Direction_850mb
343 332 319 307 294 285 280 280 277 269 262 250 242 240 239 236 234 233 231 231 231 232
348 336 319 306 298 295 289 285 281 275 269 262 253 243 240 238 235 233 232 231 231 232
345 342 333 317 304 298 293 288 285 280 274 267 260 251 242 239 238 235 234 232 232 231
344 341 343 339 323 307 296 289 282 279 276 270 263 257 249 242 240 238 237 235 233 233
337 339 338 338 338 325 307 295 287 281 273 269 265 261 254 246 240 239 238 238 235 234
340 337 335 336 337 335 328 311 294 285 278 271 265 262 259 255 248 243 240 239 240 238
334 336 336 332 330 333 331 329 311 294 285 277 270 266 261 256 254 249 243 241 241 238
331 329 328 329 329 325 326 325 327 307 286 277 268 267 263 260 254 253 249 244 243 241
327 329 329 327 326 326 323 321 319 322 307 283 274 270 268 264 258 254 252 250 247 244
320 321 324 327 327 326 323 320 318 311 315 303 285 277 275 271 265 258 255 251 248 245
306 310 314 319 322 323 323 321 316 311 306 308 301 281 273 272 271 263 257 253 250 247
305 306 307 309 312 314 316 315 316 312 307 301 302 295 274 270 265 262 258 255 251 248
300 300 301 302 303 305 307 308 308 308 304 300 292 297 285 262 257 250 254 251 249 245
297 298 298 297 296 298 299 300 301 300 301 297 292 288 292 274 248 244 243 246 250 248